[[{"header":{"parameterUnit":"m.s-1","parameterCategory":1,"la1":30.2991,"la2":30.254,"lo1":-89.0895,"lo2":-89.0444,"dy":0.0017,"dx":0.0017,"nx":28,"ny":28,"refTime":"2025-12-22T09:00:00:Z","depth":0,"parameterNumber":2,"parameterNumberName":"U-component_of_WINDS"},"data":[0,0,0,0,0,0,0,0,0,0,0,0,0,0,0,0,0,0,0,0,0,0,0,0,0,0,0,0,0,0,0,0,0,0,0,0,0,0,0,0,0,0,0,0,0,0,0,0,0,0,0,0,0,0,0,0,0,0,-4.6548,-4.6549,0,-4.662,-4.6621,-4.6622,-4.6583,-4.6581,-4.6579,-4.6577,-4.6649,-4.6653,-4.6657,0,0,0,0,0,0,0,0,0,0,0,0,0,-4.6379,-4.6382,-4.6548,-4.6549,-4.655,-4.662,-4.6621,-4.6622,-4.6583,-4.6581,-4.6578,-4.6576,-4.6648,-4.6652,-4.6657,0,0,0,0,0,0,0,0,0,0,0,0,0,-4.6452,-4.6383,-4.6548,-4.6539,-4.6539,-4.662,-4.6621,-4.6622,-4.6583,-4.658,-4.6578,-4.6575,-4.6646,-4.6652,-4.6657,-4.6751,0,0,-4.6675,-4.6677,0,0,0,0,0,0,0,0,-4.6448,-4.6458,-4.654,-4.654,-4.654,-4.6589,-4.6588,-4.6665,-4.6584,-4.6567,-4.6577,-4.6573,-4.6632,-4.6638,-4.6658,-4.6754,-4.6757,-4.6675,-4.6679,-4.6681,-4.6683,0,0,0,0,0,0,0,-4.6443,-4.6455,-4.6577,-4.6541,-4.6541,-4.6532,-4.6539,-4.6602,-4.6615,-4.6568,-4.6565,-4.6574,-4.6631,-4.6653,-4.666,-4.6759,-4.6675,-4.668,-4.6684,-4.6686,-4.6938,-4.6942,0,0,0,0,0,0,-4.6438,-4.6451,-4.6574,-4.6579,-4.6486,-4.6537,-4.6545,-4.6576,-4.6614,-4.6617,-4.6577,-4.6572,-4.6645,-4.6653,-4.6662,-4.6775,-4.6681,-4.6686,-4.6689,-4.6935,-4.6939,-4.6943,0,0,0,0,0,0,-4.6435,-4.645,-4.6572,-4.6514,-4.6529,-4.6544,-4.6579,-4.6579,-4.6601,-4.6621,-4.6623,-4.6596,-4.6643,-4.6654,-4.673,-4.6777,-4.6689,-4.6694,-4.6931,-4.6936,-4.6941,-4.7001,0,0,0,0,0,0,-4.643,-4.6449,-4.6483,-4.6515,-4.6532,-4.6638,-4.6582,-4.6583,-4.6611,-4.6606,-4.664,-4.6642,-4.6641,-4.6722,-4.6736,-4.6783,-4.6698,-4.6927,-4.6934,-4.6939,-4.6995,-4.7007,-4.7018,0,0,0,0,0,-4.6424,-4.6497,-4.6485,-4.65,-4.6576,-4.664,-4.665,-4.6647,-4.6615,-4.665,-4.6664,-4.6641,-4.677,-4.673,-4.6745,-4.6795,-4.6924,-4.6932,-4.6939,-4.6989,-4.7005,-4.7018,0,0,0,0,0,0,-4.6468,-4.65,-4.6488,-4.6573,-4.6605,-4.6634,-4.6678,-4.6664,-4.6704,-4.6697,-4.6693,-4.6701,-4.678,-4.6795,-4.675,-4.6889,-4.6842,-4.6853,-4.6875,-4.689,-4.6902,-4.6895,-4.6703,0,0,0,0,0,-4.6488,-4.6537,-4.6563,-4.6635,-4.6652,-4.6663,-4.6691,-4.6687,-4.6719,-4.6731,-4.675,-4.6782,-4.683,-4.6861,-4.6906,-4.6998,-4.7006,-4.704,-4.7052,-4.7062,-4.707,-4.7122,-4.7138,-4.6967,-4.6967,-4.6967,0,0,-4.6528,-4.6552,-4.6583,-4.6645,-4.6669,-4.6721,-4.6674,-4.673,-4.6768,-4.674,-4.6812,-4.6828,-4.6864,-4.6949,-4.6987,-4.6964,-4.712,-4.7071,-4.7079,-4.7082,-4.7131,-4.7147,-4.7162,-4.6973,-4.6972,-4.6971,0,0,-4.6628,-4.6652,-4.6715,-4.6741,-4.6779,-4.6786,-4.6802,-4.6835,-4.6844,-4.6918,-4.6898,-4.6945,-4.7027,-4.7054,-4.7078,-4.7195,-4.7176,-4.721,-4.727,-4.7321,-4.7334,-4.7346,-4.7387,-4.7402,-4.722,-4.722,-4.722,0,-4.6673,-4.675,-4.675,-4.6808,-4.6837,-4.6816,-4.6881,-4.6906,-4.6956,-4.6977,-4.6951,-4.7056,-4.7079,-4.717,-4.7199,-4.722,-4.7238,-4.7204,-4.7332,-4.7344,-4.7355,-4.7395,-4.741,-4.7223,-4.7223,-4.7223,-4.7222,0,-4.6805,-4.6859,-4.6906,-4.6957,-4.6991,-4.7053,-4.7062,-4.7097,-4.7092,-4.7103,-4.718,-4.7207,-4.7258,-4.728,-4.7275,-4.7373,-4.7357,-4.7332,-4.7284,-4.7375,-4.7412,-4.7428,-4.7229,-4.7228,-4.7226,-4.7226,0,0,-4.6929,-4.6983,-4.7,-4.7024,-4.7066,-4.7108,-4.7171,-4.7222,-4.7253,-4.729,-4.7342,-4.7415,-4.7393,-4.7421,-4.742,-4.7464,-4.7556,-4.7434,-4.7435,-4.7455,-4.7666,-4.7683,-4.7701,-4.7545,-4.7548,-4.7551,-4.7663,0,-4.7031,-4.714,-4.7143,-4.7243,-4.7294,-4.7278,-4.7332,-4.7365,-4.7378,-4.7424,-4.7439,-4.7491,-4.7458,-4.7475,-4.7519,-4.7535,-4.7598,-4.7528,-4.7594,-4.7596,-4.7583,-4.772,-4.7737,-4.7842,-4.7678,-4.768,-4.7682,0,-4.7163,-4.7207,-4.7312,-4.7351,-4.7372,-4.7421,-4.747,-4.7514,-4.7552,-4.7559,-4.7593,-4.7586,-4.7651,-4.7605,-4.7695,-4.7647,-4.7675,-4.7688,-4.7692,-4.7696,-4.7642,-4.7726,-4.7875,-4.789,-4.7705,-4.7703,-4.7701,0,-4.7243,-4.7328,-4.7402,-4.7424,-4.747,-4.7506,-4.7527,-4.7562,-4.7594,-4.7638,-4.7659,-4.771,-4.7737,-4.7777,-4.7785,-4.775,-4.7876,-4.7829,-4.7883,-4.7883,-4.7907,-4.7905,-4.8061,-4.7929,-4.7929,-4.7928,-4.7928,0,-4.7355,-4.742,-4.7439,-4.7484,-4.7557,-4.7563,-4.7635,-4.7654,-4.7686,-4.7736,-4.7726,-4.7773,-4.7781,-4.783,-4.7837,-4.7912,-4.7924,-4.7932,-4.7932,-4.7931,-4.793,-4.7947,-4.7939,-4.7933,-4.7932,-4.7931,-4.793,0,-4.7454,-4.747,-4.755,-4.7589,-4.7601,-4.7653,-4.7687,-4.7732,-4.7746,-4.7809,-4.7825,-4.7847,-4.7905,-4.7918,-4.7986,-4.7991,-4.8079,-4.8073,-4.8066,-4.8065,-4.8117,-4.8112,-4.8288,-4.8311,-4.8166,-4.8167,-4.8169,0,-4.7523,-4.7573,-4.762,-4.7653,-4.7676,-4.7729,-4.7763,-4.7772,-4.7807,-4.7857,-4.7896,-4.7954,-4.7999,-4.8093,-4.8115,-4.8169,-4.8163,-4.8222,-4.8171,-4.8169,-4.8163,-4.8159,-4.8164,-4.823,-4.8232,-4.8233,-4.8234,0,-4.7644,-4.7651,-4.7699,-4.7753,-4.7794,-4.7836,-4.7875,-4.7903,-4.7918,-4.7959,-4.8019,-4.8055,-4.8127,-4.8184,-4.8238,-4.8261,-4.825,-4.8251,-4.8266,-4.8264,-4.8257,-4.8261,-4.809,-4.8245,-4.8244,-4.8243,-4.8243,-4.8242,-4.7729,-4.7774,-4.7815,-4.787,-4.7902,-4.7941,-4.7985,-4.8007,-4.8057,-4.8117,-4.812,-4.8185,-4.8226,-4.8298,-4.8325,-4.8377,-4.8359,-4.8381,-4.8386,-4.8391,-4.8395,-4.8252,-4.8387,-4.8387,-4.8387,-4.8387,-4.8386,0,-4.7849,-4.7876,-4.7927,-4.7985,-4.803,-4.8019,-4.8064,-4.8102,-4.816,-4.8199,-4.8246,-4.8317,-4.8374,-4.8403,-4.846,-4.8496,-4.8493,-4.851,-4.8506,-4.8512,-4.8408,-4.8389,-4.8512,-4.8512,-4.8512,-4.8512,-4.8512,-4.8512,-4.7916,-4.7991,-4.8003,-4.8095,-4.8122,-4.8187,-4.8213,-4.825,-4.8282,-4.8361,-4.8409,-4.8429,-4.8465,-4.8525,-4.8577,-4.8585,-4.8605,-4.8625,-4.863,-4.8532,-4.8519,-4.8507,-4.8488,-4.863,-4.863,-4.8729,-4.873,-4.873]},{"header":{"parameterUnit":"m.s-1","parameterCategory":1,"la1":30.2991,"la2":30.254,"lo1":-89.0895,"lo2":-89.0444,"dy":0.0017,"dx":0.0017,"nx":28,"ny":28,"refTime":"2025-12-22T09:00:00:Z","depth":0,"parameterNumber":3,"parameterNumberName":"V-component_of_WINDS"},"data":[0,0,0,0,0,0,0,0,0,0,0,0,0,0,0,0,0,0,0,0,0,0,0,0,0,0,0,0,0,0,0,0,0,0,0,0,0,0,0,0,0,0,0,0,0,0,0,0,0,0,0,0,0,0,0,0,0,0,1.225,1.2249,0,1.2191,1.219,1.2189,1.2173,1.2174,1.2174,1.2175,1.211,1.2108,1.2106,0,0,0,0,0,0,0,0,0,0,0,0,0,1.2349,1.2347,1.225,1.2249,1.2249,1.2191,1.219,1.2189,1.2173,1.2174,1.2174,1.2175,1.2111,1.2108,1.2106,0,0,0,0,0,0,0,0,0,0,0,0,0,1.2299,1.2346,1.225,1.2234,1.2232,1.2191,1.219,1.2189,1.2173,1.2174,1.2174,1.2175,1.2112,1.2109,1.2106,1.2076,0,0,1.2096,1.2095,0,0,0,0,0,0,0,0,1.2302,1.2295,1.2237,1.2235,1.2233,1.219,1.2201,1.2151,1.2173,1.2195,1.2175,1.2175,1.2136,1.2131,1.2119,1.2073,1.207,1.2096,1.2094,1.2093,1.2092,0,0,0,0,0,0,0,1.2305,1.2298,1.2226,1.2236,1.2233,1.2229,1.2223,1.2192,1.2163,1.2193,1.2192,1.2186,1.2135,1.2122,1.2117,1.2069,1.2096,1.2093,1.2091,1.209,1.1998,1.1998,0,0,0,0,0,0,1.2312,1.2301,1.2228,1.2225,1.2269,1.2227,1.222,1.2203,1.2164,1.2158,1.2185,1.2185,1.2127,1.2121,1.2115,1.2078,1.2093,1.209,1.2088,1.1999,1.1998,1.1998,0,0,0,0,0,0,1.2314,1.2306,1.2231,1.2262,1.2253,1.2225,1.2206,1.2202,1.2188,1.2157,1.2152,1.2177,1.2127,1.2119,1.2086,1.2076,1.2088,1.2086,1.2,1.1999,1.1998,1.2005,0,0,0,0,0,0,1.2317,1.2306,1.2295,1.2262,1.2251,1.2204,1.2205,1.22,1.2183,1.2183,1.2148,1.2143,1.2127,1.2091,1.2083,1.2072,1.2083,1.2,1.1999,1.1998,1.2006,1.2005,1.2004,0,0,0,0,0,1.2321,1.2298,1.2294,1.2286,1.2236,1.2203,1.2197,1.2179,1.2183,1.2171,1.2152,1.2144,1.2079,1.2088,1.2079,1.2067,1.2001,1.2,1.1998,1.2006,1.2005,1.2004,0,0,0,0,0,0,1.2327,1.2293,1.2289,1.2255,1.2232,1.2201,1.2185,1.2178,1.2153,1.2153,1.2132,1.2124,1.2094,1.2077,1.2088,1.2037,1.204,1.2037,1.2049,1.2047,1.2046,1.2051,1.2081,0,0,0,0,0,1.2325,1.2302,1.2273,1.2246,1.2235,1.2212,1.2197,1.2187,1.2162,1.2151,1.213,1.2105,1.2079,1.2062,1.2037,1.2004,1.1997,1.1991,1.199,1.199,1.1987,1.197,1.1968,1.1993,1.1993,1.1993,0,0,1.232,1.2298,1.2284,1.2247,1.2228,1.2205,1.2204,1.2178,1.2161,1.2147,1.2116,1.2099,1.2071,1.2038,1.2023,1.2023,1.1979,1.1988,1.1988,1.1985,1.1969,1.1966,1.1964,1.1992,1.1992,1.1993,0,0,1.2298,1.2279,1.2256,1.2238,1.2211,1.2196,1.2191,1.2161,1.215,1.2119,1.2109,1.2088,1.2043,1.2024,1.2008,1.1984,1.1976,1.1976,1.197,1.1954,1.1952,1.1951,1.1943,1.194,1.1974,1.1974,1.1974,0,1.2294,1.2259,1.2244,1.222,1.2205,1.2194,1.2171,1.2153,1.2119,1.2108,1.211,1.2056,1.2035,1.2,1.1994,1.1982,1.1975,1.1979,1.1954,1.1952,1.195,1.1942,1.194,1.1974,1.1974,1.1974,1.1974,0,1.2257,1.2233,1.2217,1.2187,1.2169,1.2145,1.2127,1.2111,1.2103,1.2089,1.2058,1.2034,1.2005,1.1996,1.1986,1.1959,1.1961,1.1959,1.1961,1.1948,1.1941,1.1938,1.1974,1.1974,1.1974,1.1974,0,0,1.2234,1.2199,1.2193,1.2181,1.2151,1.2132,1.2109,1.2083,1.207,1.2047,1.2027,1.1992,1.1991,1.1974,1.1962,1.1948,1.1933,1.1948,1.1947,1.1947,1.1903,1.1905,1.1901,1.1928,1.1928,1.1927,1.1905,0,1.2209,1.2168,1.2156,1.2121,1.21,1.2092,1.2072,1.2052,1.2039,1.2018,1.2003,1.1979,1.1979,1.1969,1.1955,1.1937,1.1923,1.1939,1.1909,1.1908,1.1916,1.1897,1.1898,1.1879,1.1902,1.1902,1.1901,0,1.2173,1.2153,1.2118,1.2094,1.2085,1.2067,1.2043,1.2024,1.2002,1.1993,1.1976,1.1967,1.1943,1.1948,1.1915,1.1926,1.1913,1.1903,1.1902,1.1898,1.1904,1.1893,1.1872,1.1869,1.1896,1.1897,1.1897,0,1.2162,1.2125,1.21,1.2089,1.2061,1.2049,1.2037,1.2016,1.2001,1.198,1.1971,1.1947,1.1933,1.1915,1.19,1.1905,1.1869,1.1872,1.1861,1.1861,1.1852,1.1853,1.1829,1.1845,1.1845,1.1845,1.1845,0,1.2135,1.2113,1.2095,1.2079,1.2056,1.2042,1.2019,1.2006,1.1988,1.197,1.196,1.1943,1.1925,1.1905,1.1893,1.1868,1.1862,1.1854,1.1851,1.1855,1.1856,1.1846,1.1847,1.1844,1.1844,1.1844,1.1845,0,1.2117,1.2104,1.2076,1.2053,1.2047,1.2031,1.2011,1.1995,1.1984,1.1961,1.1954,1.1935,1.1912,1.1896,1.1865,1.1857,1.1831,1.1828,1.1839,1.1837,1.1827,1.1828,1.1796,1.1791,1.181,1.181,1.181,0,1.21,1.2084,1.2061,1.2049,1.2038,1.2018,1.2005,1.1992,1.1978,1.1954,1.1941,1.1919,1.1899,1.1863,1.1846,1.1823,1.1819,1.181,1.1815,1.1821,1.182,1.1821,1.182,1.1808,1.1808,1.1808,1.1808,0,1.2072,1.2068,1.2049,1.2029,1.2014,1.1997,1.198,1.1971,1.1955,1.194,1.1918,1.1904,1.1875,1.1852,1.1829,1.1815,1.1809,1.1807,1.1803,1.1806,1.1813,1.181,1.1836,1.1807,1.1807,1.1807,1.1807,1.1807,1.2054,1.2041,1.2023,1.2004,1.1991,1.1976,1.1961,1.1949,1.1931,1.1907,1.1901,1.1878,1.1859,1.1827,1.1814,1.1796,1.1796,1.1791,1.1789,1.1788,1.1789,1.1817,1.1791,1.1791,1.1792,1.1792,1.1792,0,1.2026,1.2016,1.1998,1.1977,1.1962,1.1961,1.1943,1.193,1.1911,1.1894,1.1877,1.1852,1.1831,1.1814,1.1792,1.1781,1.1778,1.1776,1.1776,1.1774,1.1789,1.1795,1.1779,1.1779,1.1779,1.1779,1.1779,1.1779,1.201,1.1988,1.1982,1.1953,1.1942,1.1921,1.1912,1.1898,1.1886,1.186,1.1843,1.1833,1.1816,1.1794,1.1775,1.1771,1.1763,1.1762,1.1756,1.1771,1.1772,1.1774,1.1779,1.176,1.176,1.1742,1.1742,1.1742]}]]